Create Custom Reports and Graphics: Custom Report

Alpine-Roundhouse Btm 6950'

Current Conditions

3/29/20 2:15 PM (-07:00)
Updated Every 15 Minutes
Temp 34.2 °F   0.2
RH 75 %   3
Wet Bulb 31.2 °F   0.6
Dew Pt 27.2 °F   1.2
Wind Spd 3.1 mph
Wind Dir SE | 146 °
Wind Gust 8.8 mph   1.2
WindChill 34.2 °F   6.4
Barometric Pressure 30.04 inHg   0.00
Daily Min Temp 28.4 °F   4.8
Daily Max Temp 36.4 °F   0.2
Latest Rain 0.00 In
Daily Rain 0.09 In
New Snow 0.1 in
SnowDepth 77.7 in

Last 6 Hours

Alpine-Roundhouse Btm 6950'

15 Minute Data | America/Los_Angeles
as of 3/29/20 2:22 PM PDT
Date & Time Temp (°F) RH (%) Dew Pt (°F) Wet Bulb (°F) Wind Dir (°) Wind Spd (mph) Wind Gust (mph) WindChill (°F) Barometric Pressure (inHg) New Snow (in) SnowDepth (in) Latest Rain (In) Daily Rain (In) Daily Min Temp (°F) Daily Max Temp (°F)
3/29/20 - 1415 34.2 75 27.2 31.2 SE | 146 3.1 8.8 34.2 30.04 0.1 77.7 0.00 0.09 28.4 36.4
3/29/20 - 1400 34.1 78 28.1 31.4 SSE | 153 3.2 9.8 31.4 30.03 0.0 77.8 0.00 0.09 28.4 36.4
3/29/20 - 1345 33.4 79 27.7 30.9 SSE | 166 3.9 8.8 33.4 30.03 0.0 77.8 0.00 0.09 28.4 36.4
3/29/20 - 1330 35.1 76 28.5 32.1 SSE | 160 3.3 8.9 35.1 30.04 0.0 77.7 0.00 0.09 28.4 36.4
3/29/20 - 1315 35.7 74 28.4 32.4 SSE | 164 3.7 10.2 31.4 30.03 0.0 77.7 0.00 0.09 28.4 36.4
3/29/20 - 1300 36.3 71 27.7 32.5 SSE | 160 4.7 9.4 36.3 30.02 0.0 77.8 0.00 0.09 28.4 36.4
3/29/20 - 1245 35.8 75 28.7 32.6 S | 175 4.3 10.6 35.8 30.02 0.0 77.9 0.00 0.09 28.4 36.1
3/29/20 - 1230 34.9 73 27.1 31.5 SE | 131 3.1 9.3 30.1 30.03 0.0 78.2 0.00 0.09 28.4 35.1
3/29/20 - 1215 34.1 76 27.3 31.1 SSE | 152 3.9 14.3 34.1 30.02 0.0 78.3 0.00 0.09 28.4 34.8
3/29/20 - 1200 33.8 75 26.7 30.8 N | 4 2.5 9.1 33.8 30.03 0.0 78.4 0.00 0.09 28.4 34.8
3/29/20 - 1145 33.8 76 27.1 30.9 E | 94 1.7 5.7 33.8 30.03 0.2 78.6 0.00 0.09 28.4 34.8
3/29/20 - 1130 33.8 75 26.6 30.7 SSE | 154 3.2 7.8 33.8 30.04 0.2 78.5 0.00 0.09 28.4 34.8
3/29/20 - 1115 34.6 73 26.8 31.2 S | 174 3.4 10.6 34.6 30.04 0.3 78.6 0.00 0.09 28.4 34.6
3/29/20 - 1100 32.3 80 26.9 30.0 SSE | 156 2.4 8.2 27.2 30.04 0.4 78.8 0.00 0.09 28.4 33.1
3/29/20 - 1045 32.3 84 28.0 30.4 SE | 146 2.9 8.2 32.3 30.03 0.4 78.9 0.00 0.09 28.4 32.7
3/29/20 - 1030 31.9 83 27.3 29.9 SE | 127 3.8 10.8 31.9 30.03 0.4 78.9 0.00 0.09 28.4 32.4
3/29/20 - 1015 31.1 88 27.8 29.7 SE | 141 3.7 11.9 27.9 30.02 0.4 79.0 0.01 0.09 28.4 32.4
3/29/20 - 1000 32.2 82 27.4 30.2 SE | 136 3.2 8.5 32.2 30.02 0.2 78.8 0.00 0.08 28.4 32.4
3/29/20 - 0945 31.0 86 27.1 29.4 SSE | 161 4.3 12.6 31.0 30.01 0.2 78.9 0.00 0.08 28.4 31.2
3/29/20 - 0930 30.8 85 26.9 29.1 SSE | 156 4.6 10.9 27.1 30.01 0.1 78.9 0.00 0.08 28.4 30.9
3/29/20 - 0915 30.4 88 27.3 29.1 SE | 133 4.0 10.8 22.1 30.00 0.2 79.0 0.00 0.08 28.4 30.6
3/29/20 - 0900 30.0 87 26.6 28.6 SE | 140 5.3 13.6 30.0 30.00 0.2 78.9 0.01 0.08 28.4 30.3
3/29/20 - 0845 30.2 86 26.4 28.6 SSE | 150 6.4 13.4 30.2 30.00 0.1 78.9 0.00 0.07 28.4 30.3
3/29/20 - 0830 29.9 88 26.9 28.6 SE | 143 5.6 11.9 22.2 30.00 0.0 78.6 0.00 0.07 28.4 30.0
Max 36.3 88 28.7 32.6 - 6.4 14.3 36.3 30.04 0.4 79.0 0.01 0.09 28.4 36.4
Avg 33.0 80 27.4 30.5 - 3.8 10.2 31.3 30.02 0.1 78.4 0.00 - - -
Min 29.9 71 26.4 28.6 - 1.7 5.7 22.1 30.00 0.0 77.7 0.00 0.07 28.4 30.0
Total - - - - - - - - - - - 0.02 - - -

Last 30 Days

Alpine-Roundhouse Btm 6950'

Daily Data | America/Los_Angeles
as of 3/29/20 2:22 PM PDT
Date Daily Max Temp (°F) Max Temp Time Daily Min Temp (°F) Min Temp Time Wind Spd (mph) Daily Max Wind (mph) Max Wind Dir (°) Max Wind Time Daily Rain (In) Seasonal Rainfall (In) SnowDepth (in) Max RH (%) Min RH (%) Wet Bulb (°F) WetB Hrs <28F (hrs) Min Press (inHg) Time of Min Press Bat Volt Min Day (V)
3/28/20 36.2 1334 23.6 0146 2.4 15.5 SSE | 164 2338 0.07 8.96 78.4 92 59 26.8 11.0 29.99 2330 13.1
3/27/20 34.3 1213 17.5 0506 3.4 19.7 SSE | 163 1500 0.00 8.89 79.3 85 46 22.4 23.9 29.92 0430 13.2
3/26/20 30.6 1334 15.1 0553 1.9 10.7 N | 1 1406 0.02 8.89 82.2 92 56 19.0 24.0 29.84 0001 13.2
3/25/20 27.7 1149 17.3 2303 3.5 18.8 SE | 142 1406 0.22 8.87 84.1 97 78 21.9 24.0 29.83 1850 13.1
3/24/20 31.9 0002 24.6 2359 6.0 25.6 SE | 137 1924 0.95 8.65 82.8 98 79 27.4 16.4 29.87 1945 13.1
3/23/20 34.9 0349 29.1 0049 5.1 31.8 SSE | 154 1903 0.25 7.70 73.7 98 65 30.5 2.4 29.94 0430 13.0
3/22/20 43.9 1300 25.7 0316 2.3 13.4 SW | 235 1828 0.02 7.45 73.0 98 38 29.7 11.2 29.98 2335 13.0
3/21/20 42.8 1532 24.8 0751 1.6 12.9 NNW | 338 1155 0.00 7.43 75.9 97 40 28.8 12.1 30.05 1700 13.1
3/20/20 35.1 1203 19.4 0537 1.7 13.2 N | 354 1136 0.00 7.43 79.7 96 59 25.0 16.9 30.03 0005 13.1
3/19/20 33.5 1513 18.4 0738 1.3 10.2 N | 354 1756 0.01 7.43 82.6 98 56 23.7 23.5 29.78 0001 13.1
3/18/20 27.2 1300 21.0 2359 4.0 18.1 SE | 139 0430 0.18 7.42 87.1 98 88 23.1 24.0 29.73 0425 13.0
3/17/20 25.3 1234 19.1 0707 5.3 24.5 S | 174 1240 0.11 7.24 87.2 98 93 21.9 24.0 29.76 0001 13.0
3/16/20 30.7 1153 24.2 0001 1.9 16.2 S | 177 0555 1.10 7.13 92.8 100 98 27.3 15.9 29.74 2010 13.0
3/15/20 28.4 0941 24.1 2359 5.0 27.1 SSE | 149 0659 2.47 6.03 85.6 99 98 26.1 23.8 29.73 0640 13.0
3/14/20 33.9 0006 24.8 2158 6.0 31.6 SSE | 151 0021 2.44 3.56 62.6 98 88 27.5 12.4 29.75 0020 13.0
3/13/20 46.9 1246 30.9 0732 5.3 36.3 SE | 132 1823 0.02 1.12 36.5 92 29 32.1 8.8 29.71 2105 13.1
3/12/20 49.5 1533 32.7 0740 2.8 19.8 N | 351 1027 0.00 1.10 38.5 77 32 33.6 1.0 29.91 2320 13.1
3/11/20 50.3 1531 32.5 0804 1.8 7.9 SW | 230 1818 0.00 1.10 39.3 83 43 35.6 0.0 30.03 1810 13.0
3/10/20 47.4 1554 28.6 0655 2.0 18.2 NNW | 348 1159 0.00 1.10 39.7 89 42 32.7 1.7 30.07 1925 13.1
3/9/20 42.3 1251 27.3 0852 2.2 15.4 SE | 131 0453 0.03 1.10 40.9 97 40 30.7 3.9 29.97 0055 13.1
3/8/20 35.3 1246 28.4 2346 2.9 11.9 SE | 132 0105 0.08 1.07 41.4 90 65 28.9 8.1 29.87 0415 13.2
3/7/20 39.8 0004 28.6 1831 5.9 31.2 SE | 127 0728 0.30 0.99 41.7 96 63 29.6 5.2 29.79 0505 13.1
3/6/20 50.0 1441 39.3 2323 5.8 22.6 S | 180 1055 0.00 0.69 39.0 65 32 35.1 0.0 29.86 2355 13.1
3/5/20 53.4 1209 36.1 0610 3.5 17.1 SE | 142 1448 0.00 0.69 39.5 68 30 36.3 0.0 30.11 2350 13.0
3/4/20 55.7 1251 33.1 0658 2.4 10.9 S | 176 1316 0.00 0.69 41.4 69 22 34.5 0.0 30.15 0310 13.1
3/3/20 51.5 1454 28.0 0639 1.9 12.6 N | 10 1235 0.00 0.69 43.3 89 31 32.7 3.8 30.12 0440 13.1
3/2/20 37.0 1506 19.3 0004 3.9 25.3 N | 5 0237 0.19 0.69 46.4 79 28 23.5 17.3 30.00 0355 13.1
3/1/20 27.3 0001 19.0 2350 2.3 14.2 NNW | 345 1710 0.35 0.50 48.7 97 66 21.5 24.0 29.85 0400 13.1
2/29/20 43.9 1119 27.3 2359 5.5 28.8 SSE | 151 1117 0.15 0.15 41.6 95 29 31.3 5.9 29.87 2315 13.1
2/28/20 50.7 1251 36.4 0153 3.7 19.6 SE | 139 1104 0.00 0.00 39.9 71 26 33.9 0.9 30.10 2355 13.1
Max 55.7 - 39.3 - 6.0 36.3 - - 2.47 - 92.8 100 98 36.3 24.0 30.15 - 13.2
Avg - - - - 3.4 - - - - - 60.8 - - 28.4 - - - -
Min 25.3 - 15.1 - 1.3 7.9 - - 0.00 - 36.5 65 22 19.0 0.0 29.71 - 13.0
Calm: 0.0%
Calm: 0.0%